Location: Byszew
(52.1813°N, 19.2693°E)
Time: 01:24:52
(UTC+00:00)

Envisat - Pass Details

Date: 27 January 2022
Orbit: 764 x 765 km, 98.2° (Epoch: 28 May)

Event Time Altitude Azimuth Distance (km) Brightness Sun altitude
Rises 05:19:01 0° 6° (N) 3,244 6.1 -11.0°
Reaches altitude 10° 05:21:46 10° 352° (N) 2,314 5.2 -10.6°
Maximum altitude 05:25:36 22° 303° (WNW) 1,631 4.1 -10.0°
Drops below altitude 10° 05:29:25 10° 254° (WSW) 2,303 5.0 -9.5°
Sets 05:32:09 0° 240° (WSW) 3,225 5.8 -9.1°
